<?xml version="1.0" encoding="UTF-8" standalone="no" ?>
<gpx xmlns="http://www.topografix.com/GPX/1/1" xmlns:xsi="http://www.w3.org/2001/XMLSchema-instance" xsi:schemaLocation="http://www.topografix.com/GPX/1/1 http://www.topografix.com/GPX/1/1/gpx.xsd" version="1.1" creator="VisuGPX - https://www.visugpx.com">
  <metadata>
    <name>Montfort - Ste Gemme 2015 01 07</name>
    <desc><![CDATA[
]]></desc>
  </metadata>
  <trk>
    <name><![CDATA[Montfort - Ste Gemme 2015 01 07]]></name>
    <extensions>
      <line xmlns="http://www.topografix.com/GPX/gpx_style/0/2">
        <width>4</width>
      </line>
    </extensions>
    <trkseg>
      <trkpt lat="43.79418" lon="0.8252">
        <ele>162.3</ele>
        <time>2015-01-10T07:59:37.380Z</time>
      </trkpt>
      <trkpt lat="43.7947" lon="0.8254">
        <ele>156.5</ele>
        <time>2015-01-10T07:59:37.380Z</time>
      </trkpt>
      <trkpt lat="43.79501" lon="0.82555">
        <ele>154.2</ele>
        <time>2015-01-10T07:59:37.380Z</time>
      </trkpt>
      <trkpt lat="43.79508" lon="0.82591">
        <ele>155.9</ele>
        <time>2015-01-10T07:59:37.380Z</time>
      </trkpt>
      <trkpt lat="43.79552" lon="0.82523">
        <ele>149.5</ele>
        <time>2015-01-10T07:59:37.380Z</time>
      </trkpt>
      <trkpt lat="43.79605" lon="0.82396">
        <ele>143.7</ele>
        <time>2015-01-10T07:59:37.380Z</time>
      </trkpt>
      <trkpt lat="43.79672" lon="0.82434">
        <ele>149.4</ele>
        <time>2015-01-10T07:59:37.380Z</time>
      </trkpt>
      <trkpt lat="43.79699" lon="0.82427">
        <ele>152.4</ele>
        <time>2015-01-10T07:59:37.380Z</time>
      </trkpt>
      <trkpt lat="43.79755" lon="0.82162">
        <ele>149.1</ele>
        <time>2015-01-10T07:59:37.380Z</time>
      </trkpt>
      <trkpt lat="43.79797" lon="0.81992">
        <ele>127.4</ele>
        <time>2015-01-10T07:59:37.380Z</time>
      </trkpt>
      <trkpt lat="43.79852" lon="0.81939">
        <ele>121.9</ele>
        <time>2015-01-10T07:59:37.380Z</time>
      </trkpt>
      <trkpt lat="43.79892" lon="0.81913">
        <ele>119.2</ele>
        <time>2015-01-10T07:59:37.380Z</time>
      </trkpt>
      <trkpt lat="43.7995" lon="0.81948">
        <ele>120.4</ele>
        <time>2015-01-10T07:59:37.380Z</time>
      </trkpt>
      <trkpt lat="43.80035" lon="0.81983">
        <ele>119.5</ele>
        <time>2015-01-10T07:59:37.380Z</time>
      </trkpt>
      <trkpt lat="43.80073" lon="0.82003">
        <ele>117.8</ele>
        <time>2015-01-10T07:59:37.380Z</time>
      </trkpt>
      <trkpt lat="43.80121" lon="0.82002">
        <ele>116.1</ele>
        <time>2015-01-10T07:59:37.380Z</time>
      </trkpt>
      <trkpt lat="43.80157" lon="0.82026">
        <ele>115.1</ele>
        <time>2015-01-10T07:59:37.380Z</time>
      </trkpt>
      <trkpt lat="43.80198" lon="0.82068">
        <ele>115.2</ele>
        <time>2015-01-10T07:59:37.380Z</time>
      </trkpt>
      <trkpt lat="43.80244" lon="0.82174">
        <ele>118.1</ele>
        <time>2015-01-10T07:59:37.380Z</time>
      </trkpt>
      <trkpt lat="43.8028" lon="0.82246">
        <ele>115.7</ele>
        <time>2015-01-10T07:59:37.380Z</time>
      </trkpt>
      <trkpt lat="43.80343" lon="0.82327">
        <ele>115.8</ele>
        <time>2015-01-10T07:59:37.380Z</time>
      </trkpt>
      <trkpt lat="43.8038" lon="0.82412">
        <ele>115.8</ele>
        <time>2015-01-10T07:59:37.380Z</time>
      </trkpt>
      <trkpt lat="43.80414" lon="0.82457">
        <ele>115.1</ele>
        <time>2015-01-10T07:59:37.380Z</time>
      </trkpt>
      <trkpt lat="43.80472" lon="0.82465">
        <ele>114.7</ele>
        <time>2015-01-10T07:59:37.380Z</time>
      </trkpt>
      <trkpt lat="43.80578" lon="0.82428">
        <ele>113.9</ele>
        <time>2015-01-10T07:59:37.380Z</time>
      </trkpt>
      <trkpt lat="43.80662" lon="0.82408">
        <ele>121.3</ele>
        <time>2015-01-10T07:59:37.380Z</time>
      </trkpt>
      <trkpt lat="43.80718" lon="0.82419">
        <ele>121.5</ele>
        <time>2015-01-10T07:59:37.380Z</time>
      </trkpt>
      <trkpt lat="43.80752" lon="0.82476">
        <ele>118.7</ele>
        <time>2015-01-10T07:59:37.380Z</time>
      </trkpt>
      <trkpt lat="43.80783" lon="0.82503">
        <ele>121.3</ele>
        <time>2015-01-10T07:59:37.380Z</time>
      </trkpt>
      <trkpt lat="43.80848" lon="0.82544">
        <ele>129.6</ele>
        <time>2015-01-10T07:59:37.380Z</time>
      </trkpt>
      <trkpt lat="43.80871" lon="0.82464">
        <ele>137.5</ele>
        <time>2015-01-10T07:59:37.380Z</time>
      </trkpt>
      <trkpt lat="43.80927" lon="0.82321">
        <ele>144.3</ele>
        <time>2015-01-10T07:59:37.380Z</time>
      </trkpt>
      <trkpt lat="43.80966" lon="0.82234">
        <ele>145.2</ele>
        <time>2015-01-10T07:59:37.380Z</time>
      </trkpt>
      <trkpt lat="43.81001" lon="0.8223">
        <ele>152.4</ele>
        <time>2015-01-10T07:59:37.380Z</time>
      </trkpt>
      <trkpt lat="43.81047" lon="0.82155">
        <ele>152.2</ele>
        <time>2015-01-10T07:59:37.380Z</time>
      </trkpt>
      <trkpt lat="43.81082" lon="0.82121">
        <ele>154.4</ele>
        <time>2015-01-10T07:59:37.380Z</time>
      </trkpt>
      <trkpt lat="43.81139" lon="0.82101">
        <ele>158.6</ele>
        <time>2015-01-10T07:59:37.380Z</time>
      </trkpt>
      <trkpt lat="43.81173" lon="0.82122">
        <ele>162.3</ele>
        <time>2015-01-10T07:59:37.380Z</time>
      </trkpt>
      <trkpt lat="43.81163" lon="0.82171">
        <ele>161.9</ele>
        <time>2015-01-10T07:59:37.380Z</time>
      </trkpt>
      <trkpt lat="43.81145" lon="0.82211">
        <ele>162</ele>
        <time>2015-01-10T07:59:37.380Z</time>
      </trkpt>
      <trkpt lat="43.81253" lon="0.82294">
        <ele>171.7</ele>
        <time>2015-01-10T07:59:37.380Z</time>
      </trkpt>
      <trkpt lat="43.81331" lon="0.8232">
        <ele>176.2</ele>
        <time>2015-01-10T07:59:37.380Z</time>
      </trkpt>
      <trkpt lat="43.81434" lon="0.82363">
        <ele>176.9</ele>
        <time>2015-01-10T07:59:37.380Z</time>
      </trkpt>
      <trkpt lat="43.81401" lon="0.82204">
        <ele>175.5</ele>
        <time>2015-01-10T07:59:37.380Z</time>
      </trkpt>
      <trkpt lat="43.8139" lon="0.821">
        <ele>171.7</ele>
        <time>2015-01-10T07:59:37.380Z</time>
      </trkpt>
      <trkpt lat="43.81393" lon="0.81693">
        <ele>171.2</ele>
        <time>2015-01-10T07:59:37.380Z</time>
      </trkpt>
      <trkpt lat="43.81418" lon="0.81539">
        <ele>172.9</ele>
        <time>2015-01-10T07:59:37.380Z</time>
      </trkpt>
      <trkpt lat="43.81414" lon="0.80764">
        <ele>176.9</ele>
        <time>2015-01-10T07:59:37.380Z</time>
      </trkpt>
      <trkpt lat="43.81257" lon="0.80817">
        <ele>175.7</ele>
        <time>2015-01-10T07:59:37.380Z</time>
      </trkpt>
      <trkpt lat="43.81054" lon="0.80767">
        <ele>168.5</ele>
        <time>2015-01-10T07:59:37.380Z</time>
      </trkpt>
      <trkpt lat="43.80843" lon="0.80776">
        <ele>166</ele>
        <time>2015-01-10T07:59:37.380Z</time>
      </trkpt>
      <trkpt lat="43.80599" lon="0.80776">
        <ele>165.5</ele>
        <time>2015-01-10T07:59:37.380Z</time>
      </trkpt>
      <trkpt lat="43.80577" lon="0.80789">
        <ele>165.5</ele>
        <time>2015-01-10T07:59:37.380Z</time>
      </trkpt>
      <trkpt lat="43.80446" lon="0.8059">
        <ele>164</ele>
        <time>2015-01-10T07:59:37.380Z</time>
      </trkpt>
      <trkpt lat="43.80258" lon="0.80644">
        <ele>161.8</ele>
        <time>2015-01-10T07:59:37.380Z</time>
      </trkpt>
      <trkpt lat="43.80215" lon="0.80609">
        <ele>159</ele>
        <time>2015-01-10T07:59:37.380Z</time>
      </trkpt>
      <trkpt lat="43.80171" lon="0.80601">
        <ele>156.8</ele>
        <time>2015-01-10T07:59:37.380Z</time>
      </trkpt>
      <trkpt lat="43.80148" lon="0.80546">
        <ele>150.5</ele>
        <time>2015-01-10T07:59:37.380Z</time>
      </trkpt>
      <trkpt lat="43.79985" lon="0.80505">
        <ele>147.8</ele>
        <time>2015-01-10T07:59:37.380Z</time>
      </trkpt>
      <trkpt lat="43.79957" lon="0.80545">
        <ele>142.9</ele>
        <time>2015-01-10T07:59:37.380Z</time>
      </trkpt>
      <trkpt lat="43.79772" lon="0.80339">
        <ele>128.2</ele>
        <time>2015-01-10T07:59:37.380Z</time>
      </trkpt>
      <trkpt lat="43.7976" lon="0.80302">
        <ele>126.6</ele>
        <time>2015-01-10T07:59:37.380Z</time>
      </trkpt>
      <trkpt lat="43.79743" lon="0.80196">
        <ele>126.6</ele>
        <time>2015-01-10T07:59:37.380Z</time>
      </trkpt>
      <trkpt lat="43.79714" lon="0.80126">
        <ele>128.8</ele>
        <time>2015-01-10T07:59:37.380Z</time>
      </trkpt>
      <trkpt lat="43.79677" lon="0.80063">
        <ele>132.1</ele>
        <time>2015-01-10T07:59:37.380Z</time>
      </trkpt>
      <trkpt lat="43.796" lon="0.79933">
        <ele>136.8</ele>
        <time>2015-01-10T07:59:37.380Z</time>
      </trkpt>
      <trkpt lat="43.79579" lon="0.79851">
        <ele>141.5</ele>
        <time>2015-01-10T07:59:37.380Z</time>
      </trkpt>
      <trkpt lat="43.79562" lon="0.79787">
        <ele>142.1</ele>
        <time>2015-01-10T07:59:37.380Z</time>
      </trkpt>
      <trkpt lat="43.79522" lon="0.79736">
        <ele>137</ele>
        <time>2015-01-10T07:59:37.380Z</time>
      </trkpt>
      <trkpt lat="43.79493" lon="0.7962">
        <ele>137.3</ele>
        <time>2015-01-10T07:59:37.380Z</time>
      </trkpt>
      <trkpt lat="43.79393" lon="0.79599">
        <ele>129</ele>
        <time>2015-01-10T07:59:37.380Z</time>
      </trkpt>
      <trkpt lat="43.79373" lon="0.79611">
        <ele>129</ele>
        <time>2015-01-10T07:59:37.380Z</time>
      </trkpt>
      <trkpt lat="43.79292" lon="0.79522">
        <ele>134.3</ele>
        <time>2015-01-10T07:59:37.380Z</time>
      </trkpt>
      <trkpt lat="43.79242" lon="0.79453">
        <ele>139.7</ele>
        <time>2015-01-10T07:59:37.380Z</time>
      </trkpt>
      <trkpt lat="43.79237" lon="0.79355">
        <ele>141.3</ele>
        <time>2015-01-10T07:59:37.380Z</time>
      </trkpt>
      <trkpt lat="43.79209" lon="0.79264">
        <ele>145.7</ele>
        <time>2015-01-10T07:59:37.380Z</time>
      </trkpt>
      <trkpt lat="43.7914" lon="0.79103">
        <ele>151.2</ele>
        <time>2015-01-10T07:59:37.380Z</time>
      </trkpt>
      <trkpt lat="43.78985" lon="0.78813">
        <ele>158.9</ele>
        <time>2015-01-10T07:59:37.380Z</time>
      </trkpt>
      <trkpt lat="43.78923" lon="0.78655">
        <ele>162.4</ele>
        <time>2015-01-10T07:59:37.380Z</time>
      </trkpt>
      <trkpt lat="43.7887" lon="0.78574">
        <ele>163.7</ele>
        <time>2015-01-10T07:59:37.380Z</time>
      </trkpt>
      <trkpt lat="43.78805" lon="0.78521">
        <ele>167</ele>
        <time>2015-01-10T07:59:37.380Z</time>
      </trkpt>
      <trkpt lat="43.78776" lon="0.78491">
        <ele>169</ele>
        <time>2015-01-10T07:59:37.380Z</time>
      </trkpt>
      <trkpt lat="43.78736" lon="0.78308">
        <ele>174.8</ele>
        <time>2015-01-10T07:59:37.380Z</time>
      </trkpt>
      <trkpt lat="43.78669" lon="0.78295">
        <ele>179.3</ele>
        <time>2015-01-10T07:59:37.380Z</time>
      </trkpt>
      <trkpt lat="43.78571" lon="0.78282">
        <ele>172.1</ele>
        <time>2015-01-10T07:59:37.380Z</time>
      </trkpt>
      <trkpt lat="43.78407" lon="0.78112">
        <ele>175.9</ele>
        <time>2015-01-10T07:59:37.380Z</time>
      </trkpt>
      <trkpt lat="43.78277" lon="0.78352">
        <ele>172.6</ele>
        <time>2015-01-10T07:59:37.380Z</time>
      </trkpt>
      <trkpt lat="43.7819" lon="0.78498">
        <ele>164.7</ele>
        <time>2015-01-10T07:59:37.380Z</time>
      </trkpt>
      <trkpt lat="43.78144" lon="0.78662">
        <ele>149.4</ele>
        <time>2015-01-10T07:59:37.380Z</time>
      </trkpt>
      <trkpt lat="43.78143" lon="0.78732">
        <ele>143.5</ele>
        <time>2015-01-10T07:59:37.380Z</time>
      </trkpt>
      <trkpt lat="43.78134" lon="0.78787">
        <ele>144.3</ele>
        <time>2015-01-10T07:59:37.380Z</time>
      </trkpt>
      <trkpt lat="43.78186" lon="0.78829">
        <ele>145.8</ele>
        <time>2015-01-10T07:59:37.380Z</time>
      </trkpt>
      <trkpt lat="43.78207" lon="0.7888">
        <ele>149.4</ele>
        <time>2015-01-10T07:59:37.380Z</time>
      </trkpt>
      <trkpt lat="43.78206" lon="0.78945">
        <ele>152.6</ele>
        <time>2015-01-10T07:59:37.380Z</time>
      </trkpt>
      <trkpt lat="43.78184" lon="0.79013">
        <ele>154.1</ele>
        <time>2015-01-10T07:59:37.380Z</time>
      </trkpt>
      <trkpt lat="43.7821" lon="0.79095">
        <ele>152.6</ele>
        <time>2015-01-10T07:59:37.380Z</time>
      </trkpt>
      <trkpt lat="43.78209" lon="0.79208">
        <ele>151</ele>
        <time>2015-01-10T07:59:37.380Z</time>
      </trkpt>
      <trkpt lat="43.78211" lon="0.79294">
        <ele>152.5</ele>
        <time>2015-01-10T07:59:37.380Z</time>
      </trkpt>
      <trkpt lat="43.78223" lon="0.79364">
        <ele>154.3</ele>
        <time>2015-01-10T07:59:37.380Z</time>
      </trkpt>
      <trkpt lat="43.78246" lon="0.79458">
        <ele>153.3</ele>
        <time>2015-01-10T07:59:37.380Z</time>
      </trkpt>
      <trkpt lat="43.78179" lon="0.79583">
        <ele>158</ele>
        <time>2015-01-10T07:59:37.380Z</time>
      </trkpt>
      <trkpt lat="43.78129" lon="0.7967">
        <ele>164.1</ele>
        <time>2015-01-10T07:59:37.380Z</time>
      </trkpt>
      <trkpt lat="43.78092" lon="0.79821">
        <ele>172</ele>
        <time>2015-01-10T07:59:37.380Z</time>
      </trkpt>
      <trkpt lat="43.78106" lon="0.79934">
        <ele>172.1</ele>
        <time>2015-01-10T07:59:37.380Z</time>
      </trkpt>
      <trkpt lat="43.78109" lon="0.79992">
        <ele>172.3</ele>
        <time>2015-01-10T07:59:37.380Z</time>
      </trkpt>
      <trkpt lat="43.78122" lon="0.80059">
        <ele>172.5</ele>
        <time>2015-01-10T07:59:37.380Z</time>
      </trkpt>
      <trkpt lat="43.7807" lon="0.80208">
        <ele>171.7</ele>
        <time>2015-01-10T07:59:37.380Z</time>
      </trkpt>
      <trkpt lat="43.78056" lon="0.80297">
        <ele>169.3</ele>
        <time>2015-01-10T07:59:37.380Z</time>
      </trkpt>
      <trkpt lat="43.78051" lon="0.80371">
        <ele>166.7</ele>
        <time>2015-01-10T07:59:37.380Z</time>
      </trkpt>
      <trkpt lat="43.78001" lon="0.80482">
        <ele>164.2</ele>
        <time>2015-01-10T07:59:37.380Z</time>
      </trkpt>
      <trkpt lat="43.77951" lon="0.80578">
        <ele>161</ele>
        <time>2015-01-10T07:59:37.380Z</time>
      </trkpt>
      <trkpt lat="43.77888" lon="0.80663">
        <ele>158.8</ele>
        <time>2015-01-10T07:59:37.380Z</time>
      </trkpt>
      <trkpt lat="43.77823" lon="0.80775">
        <ele>153.5</ele>
        <time>2015-01-10T07:59:37.380Z</time>
      </trkpt>
      <trkpt lat="43.77771" lon="0.80847">
        <ele>149.5</ele>
        <time>2015-01-10T07:59:37.380Z</time>
      </trkpt>
      <trkpt lat="43.77735" lon="0.80845">
        <ele>148.8</ele>
        <time>2015-01-10T07:59:37.380Z</time>
      </trkpt>
      <trkpt lat="43.77696" lon="0.80882">
        <ele>145.8</ele>
        <time>2015-01-10T07:59:37.380Z</time>
      </trkpt>
      <trkpt lat="43.77629" lon="0.81037">
        <ele>141</ele>
        <time>2015-01-10T07:59:37.380Z</time>
      </trkpt>
      <trkpt lat="43.77371" lon="0.80796">
        <ele>150</ele>
        <time>2015-01-10T07:59:37.380Z</time>
      </trkpt>
      <trkpt lat="43.77097" lon="0.80727">
        <ele>149.5</ele>
        <time>2015-01-10T07:59:37.380Z</time>
      </trkpt>
      <trkpt lat="43.77025" lon="0.80671">
        <ele>154.4</ele>
        <time>2015-01-10T07:59:37.380Z</time>
      </trkpt>
      <trkpt lat="43.76907" lon="0.80493">
        <ele>163.3</ele>
        <time>2015-01-10T07:59:37.380Z</time>
      </trkpt>
      <trkpt lat="43.76763" lon="0.80788">
        <ele>153</ele>
        <time>2015-01-10T07:59:37.380Z</time>
      </trkpt>
      <trkpt lat="43.76661" lon="0.80812">
        <ele>149.3</ele>
        <time>2015-01-10T07:59:37.380Z</time>
      </trkpt>
      <trkpt lat="43.76618" lon="0.80896">
        <ele>138</ele>
        <time>2015-01-10T07:59:37.380Z</time>
      </trkpt>
      <trkpt lat="43.76594" lon="0.80983">
        <ele>135.9</ele>
        <time>2015-01-10T07:59:37.380Z</time>
      </trkpt>
      <trkpt lat="43.7658" lon="0.81078">
        <ele>138.8</ele>
        <time>2015-01-10T07:59:37.380Z</time>
      </trkpt>
      <trkpt lat="43.76544" lon="0.81168">
        <ele>142.5</ele>
        <time>2015-01-10T07:59:37.380Z</time>
      </trkpt>
      <trkpt lat="43.76509" lon="0.81212">
        <ele>144</ele>
        <time>2015-01-10T07:59:37.380Z</time>
      </trkpt>
      <trkpt lat="43.76545" lon="0.81278">
        <ele>146.7</ele>
        <time>2015-01-10T07:59:37.380Z</time>
      </trkpt>
      <trkpt lat="43.76558" lon="0.81354">
        <ele>152</ele>
        <time>2015-01-10T07:59:37.380Z</time>
      </trkpt>
      <trkpt lat="43.76558" lon="0.81412">
        <ele>155.5</ele>
        <time>2015-01-10T07:59:37.380Z</time>
      </trkpt>
      <trkpt lat="43.76542" lon="0.8148">
        <ele>157.3</ele>
        <time>2015-01-10T07:59:37.380Z</time>
      </trkpt>
      <trkpt lat="43.76546" lon="0.81508">
        <ele>157.8</ele>
        <time>2015-01-10T07:59:37.380Z</time>
      </trkpt>
      <trkpt lat="43.76636" lon="0.81557">
        <ele>151.4</ele>
        <time>2015-01-10T07:59:37.380Z</time>
      </trkpt>
      <trkpt lat="43.76812" lon="0.81773">
        <ele>149.1</ele>
        <time>2015-01-10T07:59:37.380Z</time>
      </trkpt>
      <trkpt lat="43.76862" lon="0.81723">
        <ele>148</ele>
        <time>2015-01-10T07:59:37.380Z</time>
      </trkpt>
      <trkpt lat="43.76934" lon="0.81632">
        <ele>145.7</ele>
        <time>2015-01-10T07:59:37.380Z</time>
      </trkpt>
      <trkpt lat="43.77064" lon="0.81546">
        <ele>150</ele>
        <time>2015-01-10T07:59:37.380Z</time>
      </trkpt>
      <trkpt lat="43.77189" lon="0.81442">
        <ele>141.2</ele>
        <time>2015-01-10T07:59:37.380Z</time>
      </trkpt>
      <trkpt lat="43.77216" lon="0.81429">
        <ele>137.8</ele>
        <time>2015-01-10T07:59:37.380Z</time>
      </trkpt>
      <trkpt lat="43.77308" lon="0.81509">
        <ele>137.4</ele>
        <time>2015-01-10T07:59:37.380Z</time>
      </trkpt>
      <trkpt lat="43.77384" lon="0.81544">
        <ele>139.4</ele>
        <time>2015-01-10T07:59:37.380Z</time>
      </trkpt>
      <trkpt lat="43.77474" lon="0.81486">
        <ele>144.6</ele>
        <time>2015-01-10T07:59:37.380Z</time>
      </trkpt>
      <trkpt lat="43.77565" lon="0.81337">
        <ele>140.5</ele>
        <time>2015-01-10T07:59:37.380Z</time>
      </trkpt>
      <trkpt lat="43.77609" lon="0.81283">
        <ele>133.9</ele>
        <time>2015-01-10T07:59:37.380Z</time>
      </trkpt>
      <trkpt lat="43.77651" lon="0.81298">
        <ele>131.9</ele>
        <time>2015-01-10T07:59:37.380Z</time>
      </trkpt>
      <trkpt lat="43.77712" lon="0.81348">
        <ele>131.7</ele>
        <time>2015-01-10T07:59:37.380Z</time>
      </trkpt>
      <trkpt lat="43.77808" lon="0.81394">
        <ele>131.4</ele>
        <time>2015-01-10T07:59:37.380Z</time>
      </trkpt>
      <trkpt lat="43.77822" lon="0.81455">
        <ele>133.4</ele>
        <time>2015-01-10T07:59:37.380Z</time>
      </trkpt>
      <trkpt lat="43.77801" lon="0.81517">
        <ele>137.9</ele>
        <time>2015-01-10T07:59:37.380Z</time>
      </trkpt>
      <trkpt lat="43.7777" lon="0.81524">
        <ele>139.9</ele>
        <time>2015-01-10T07:59:37.380Z</time>
      </trkpt>
      <trkpt lat="43.77739" lon="0.81531">
        <ele>141.8</ele>
        <time>2015-01-10T07:59:37.380Z</time>
      </trkpt>
      <trkpt lat="43.77699" lon="0.81698">
        <ele>148.1</ele>
        <time>2015-01-10T07:59:37.380Z</time>
      </trkpt>
      <trkpt lat="43.77667" lon="0.8183">
        <ele>151.9</ele>
        <time>2015-01-10T07:59:37.380Z</time>
      </trkpt>
      <trkpt lat="43.77644" lon="0.81895">
        <ele>155.8</ele>
        <time>2015-01-10T07:59:37.380Z</time>
      </trkpt>
      <trkpt lat="43.77647" lon="0.81965">
        <ele>157</ele>
        <time>2015-01-10T07:59:37.380Z</time>
      </trkpt>
      <trkpt lat="43.77615" lon="0.82046">
        <ele>160.8</ele>
        <time>2015-01-10T07:59:37.380Z</time>
      </trkpt>
      <trkpt lat="43.77609" lon="0.82123">
        <ele>163</ele>
        <time>2015-01-10T07:59:37.380Z</time>
      </trkpt>
      <trkpt lat="43.77596" lon="0.82246">
        <ele>166.7</ele>
        <time>2015-01-10T07:59:37.380Z</time>
      </trkpt>
      <trkpt lat="43.77701" lon="0.82289">
        <ele>163.9</ele>
        <time>2015-01-10T07:59:37.380Z</time>
      </trkpt>
      <trkpt lat="43.77771" lon="0.82281">
        <ele>157.9</ele>
        <time>2015-01-10T07:59:37.380Z</time>
      </trkpt>
      <trkpt lat="43.77834" lon="0.82328">
        <ele>153.9</ele>
        <time>2015-01-10T07:59:37.380Z</time>
      </trkpt>
      <trkpt lat="43.77935" lon="0.82393">
        <ele>165.6</ele>
        <time>2015-01-10T07:59:37.380Z</time>
      </trkpt>
      <trkpt lat="43.77995" lon="0.8241">
        <ele>167.5</ele>
        <time>2015-01-10T07:59:37.380Z</time>
      </trkpt>
      <trkpt lat="43.78044" lon="0.82433">
        <ele>165.6</ele>
        <time>2015-01-10T07:59:37.380Z</time>
      </trkpt>
      <trkpt lat="43.781" lon="0.82437">
        <ele>162.1</ele>
        <time>2015-01-10T07:59:37.380Z</time>
      </trkpt>
      <trkpt lat="43.78187" lon="0.82512">
        <ele>156.9</ele>
        <time>2015-01-10T07:59:37.380Z</time>
      </trkpt>
      <trkpt lat="43.78291" lon="0.82575">
        <ele>152.8</ele>
        <time>2015-01-10T07:59:37.380Z</time>
      </trkpt>
      <trkpt lat="43.78389" lon="0.82612">
        <ele>161.8</ele>
        <time>2015-01-10T07:59:37.380Z</time>
      </trkpt>
      <trkpt lat="43.78431" lon="0.82601">
        <ele>165.6</ele>
        <time>2015-01-10T07:59:37.380Z</time>
      </trkpt>
      <trkpt lat="43.78535" lon="0.8251">
        <ele>165.7</ele>
        <time>2015-01-10T07:59:37.380Z</time>
      </trkpt>
      <trkpt lat="43.78615" lon="0.82562">
        <ele>157.7</ele>
        <time>2015-01-10T07:59:37.380Z</time>
      </trkpt>
      <trkpt lat="43.78644" lon="0.82566">
        <ele>155</ele>
        <time>2015-01-10T07:59:37.380Z</time>
      </trkpt>
      <trkpt lat="43.78674" lon="0.82555">
        <ele>152.5</ele>
        <time>2015-01-10T07:59:37.380Z</time>
      </trkpt>
      <trkpt lat="43.78713" lon="0.82571">
        <ele>151.8</ele>
        <time>2015-01-10T07:59:37.380Z</time>
      </trkpt>
      <trkpt lat="43.78754" lon="0.82578">
        <ele>151.2</ele>
        <time>2015-01-10T07:59:37.380Z</time>
      </trkpt>
      <trkpt lat="43.78821" lon="0.82549">
        <ele>153</ele>
        <time>2015-01-10T07:59:37.380Z</time>
      </trkpt>
      <trkpt lat="43.7888" lon="0.82604">
        <ele>159.6</ele>
        <time>2015-01-10T07:59:37.380Z</time>
      </trkpt>
      <trkpt lat="43.78971" lon="0.82648">
        <ele>159.3</ele>
        <time>2015-01-10T07:59:37.380Z</time>
      </trkpt>
      <trkpt lat="43.79013" lon="0.82693">
        <ele>157.6</ele>
        <time>2015-01-10T07:59:37.380Z</time>
      </trkpt>
      <trkpt lat="43.79049" lon="0.82731">
        <ele>158.1</ele>
        <time>2015-01-10T07:59:37.380Z</time>
      </trkpt>
      <trkpt lat="43.79122" lon="0.82747">
        <ele>160.2</ele>
        <time>2015-01-10T07:59:37.380Z</time>
      </trkpt>
      <trkpt lat="43.79171" lon="0.82726">
        <ele>162.7</ele>
        <time>2015-01-10T07:59:37.380Z</time>
      </trkpt>
      <trkpt lat="43.79183" lon="0.82681">
        <ele>162.3</ele>
        <time>2015-01-10T07:59:37.380Z</time>
      </trkpt>
      <trkpt lat="43.79189" lon="0.82632">
        <ele>161.5</ele>
        <time>2015-01-10T07:59:37.380Z</time>
      </trkpt>
      <trkpt lat="43.79203" lon="0.82578">
        <ele>160.8</ele>
        <time>2015-01-10T07:59:37.380Z</time>
      </trkpt>
      <trkpt lat="43.79257" lon="0.82532">
        <ele>162.6</ele>
        <time>2015-01-10T07:59:37.380Z</time>
      </trkpt>
      <trkpt lat="43.79304" lon="0.8245">
        <ele>163.5</ele>
        <time>2015-01-10T07:59:37.380Z</time>
      </trkpt>
      <trkpt lat="43.79415" lon="0.82516">
        <ele>162.7</ele>
        <time>2015-01-10T07:59:37.380Z</time>
      </trkpt>
    </trkseg>
  </trk>
</gpx>